User: anonymous   Login
Location: Kaiser
(34.0939°N, 117.4889°W)
Time: 14:45:50
(UTC+00:00)
Language:

Meteor PRIRODA - Orbit

View from above orbital plane
View from above orbital plane
View from above satellite
View from above satellite

Ground track
Ground track

The orbit data is extracted from the following two-line orbital elements,

1 12585U 81065A   21019.51514215  .00000533  00000-0  26463-4 0  9994
2 12585  97.5643  15.0243 0015324 129.8174 230.4413 15.22018279155969
Epoch (UTC): 19 January 2021 12:21:48
Eccentricity: 0.0015324
inclination: 97.5643°
perigee height: 489 km
apogee height: 510 km
right ascension of ascending node: 15.0243°
argument of perigee: 129.8174°
revolutions per day: 15.22018279
mean anomaly at epoch: 230.4413°
orbit number at epoch: 15596

The dashed part of the orbit path shows where the satellite is in the earth's shadow,  

DLR